Location: Cañada de la Miga
(34.7595°N, 106.2317°W)
Time: 23:19:59
(UTC+00:00)

Vanguard 2 - Visible Passes

Search period start: 27 November 2021 00:00
Search period end: 07 December 2021 00:00
Orbit: 554 x 2936 km, 32.9° (Epoch: 27 November)

Date Brightness Start Highest point End Pass type
(mag) Time Alt. Az. Time Alt. Az. Time Alt. Az.
27 Nov 9.4 00:03:56 10° W 00:12:17 82° S 00:26:33 10° E visible
27 Nov 9.9 02:12:21 10° W 02:23:25 69° SSW 02:31:21 36° SE visible
27 Nov 10.7 04:22:16 10° W 04:32:47 40° SW 04:32:47 40° SW visible
28 Nov 9.4 00:21:38 10° W 00:30:10 81° S 00:44:39 10° E visible
28 Nov 10.0 02:30:10 10° W 02:41:16 61° SSW 02:48:27 37° SE visible
28 Nov 11.0 04:40:39 10° W 04:49:53 32° SW 04:49:53 32° SW visible
29 Nov 9.5 00:39:20 10° W 00:48:02 77° S 01:02:42 10° ESE visible
29 Nov 10.2 02:48:01 10° W 02:59:07 53° SSW 03:05:45 36° SSE visible
29 Nov 11.3 04:59:27 10° W 05:07:12 24° SW 05:07:12 24° SW visible
30 Nov 9.6 00:57:03 10° W 01:05:54 71° SSW 01:20:38 10° ESE visible
30 Nov 10.5 03:06:00 10° W 03:16:55 44° SSW 03:23:16 32° SSE visible
30 Nov 11.5 05:19:02 10° WSW 05:24:45 17° SW 05:24:45 17° SW visible
01 Dec 9.8 01:14:48 10° W 01:23:45 63° SSW 01:38:24 10° ESE visible
01 Dec 10.8 03:24:12 10° W 03:34:44 35° SSW 03:41:06 27° S visible
01 Dec 11.8 05:40:33 10° WSW 05:42:37 11° SW 05:42:37 11° SW visible
02 Dec 10.0 01:32:36 10° W 01:41:34 54° SSW 01:55:57 10° SE visible
02 Dec 11.1 03:42:43 10° W 03:52:32 27° SSW 03:59:22 21° S visible
03 Dec 10.3 01:50:29 10° W 01:59:24 45° SSW 02:13:13 10° SE visible
03 Dec 11.4 04:01:50 10° WSW 04:10:21 20° SSW 04:18:15 14° S visible
04 Dec 10.6 02:08:33 10° W 02:17:14 36° SSW 02:30:08 10° SSE visible
04 Dec 11.6 04:22:16 10° WSW 04:28:12 14° SW 04:34:58 10° S visible
05 Dec 9.7 00:17:40 10° W 00:24:48 54° SSW 00:36:41 10° SE visible
05 Dec 10.9 02:26:53 10° W 02:35:05 28° SSW 02:46:36 10° SSE visible
06 Dec 10.0 00:35:30 10° W 00:42:36 44° SSW 00:54:05 10° SE visible
06 Dec 11.2 02:45:44 10° WSW 02:52:58 20° SSW 03:02:25 10° S visible
